Time,TemperatureF,DewpointF,PressureIn,WindDirection,WindDirectionDegrees,WindSpeedMPH,WindSpeedGustMPH,Humidity,HourlyPrecipIn,Conditions,Clouds,dailyrainin,SoftwareType,DateUTC
2013-04-18 00:01:00,70.0,63.5,30.23,NE,45,0.0,0.0,80,0.00,,,0.00,Weather View 32 v70,2013-04-18 04:01:00,
2013-04-18 00:11:00,70.0,63.5,30.23,NE,45,0.0,0.0,80,0.00,,,0.00,Weather View 32 v70,2013-04-18 04:11:00,
2013-04-18 00:16:00,70.0,63.5,30.23,NE,45,0.0,0.0,80,0.00,,,0.00,Weather View 32 v70,2013-04-18 04:16:00,
2013-04-18 00:35:00,69.0,62.6,30.23,NE,45,0.0,0.0,80,0.00,,,0.00,Weather View 32 v70,2013-04-18 04:35:00,
2013-04-18 00:36:00,69.0,62.6,30.24,NE,45,0.0,0.0,80,0.00,,,0.00,Weather View 32 v70,2013-04-18 04:36:00,
2013-04-18 00:41:00,69.0,62.6,30.24,NE,45,0.0,0.0,80,0.00,,,0.00,Weather View 32 v70,2013-04-18 04:41:00,
2013-04-18 00:46:00,69.0,62.6,30.23,North,360,0.0,0.0,80,0.00,,,0.00,Weather View 32 v70,2013-04-18 04:46:00,
2013-04-18 00:56:00,69.0,62.6,30.23,ENE,67,0.0,0.0,80,0.00,,,0.00,Weather View 32 v70,2013-04-18 04:56:00,
2013-04-18 01:11:00,68.0,61.6,30.23,ENE,67,0.0,0.0,80,0.00,,,0.00,Weather View 32 v70,2013-04-18 05:11:00,
2013-04-18 01:21:00,68.0,61.6,30.23,ENE,67,0.0,0.0,80,0.00,,,0.00,Weather View 32 v70,2013-04-18 05:21:00,
2013-04-18 01:36:00,68.0,61.6,30.23,ENE,67,0.0,0.0,80,0.00,,,0.00,Weather View 32 v70,2013-04-18 05:36:00,
2013-04-18 01:41:00,67.0,60.2,30.23,ENE,67,0.0,0.0,79,0.00,,,0.00,Weather View 32 v70,2013-04-18 05:41:00,
2013-04-18 01:56:00,67.0,60.2,30.22,NW,315,0.0,0.0,79,0.00,,,0.00,Weather View 32 v70,2013-04-18 05:56:00,
2013-04-18 02:06:00,67.0,60.2,30.23,NW,315,0.0,0.0,79,0.00,,,0.00,Weather View 32 v70,2013-04-18 06:06:00,
2013-04-18 02:11:00,66.0,59.3,30.23,NW,315,0.0,0.0,79,0.00,,,0.00,Weather View 32 v70,2013-04-18 06:11:00,
2013-04-18 02:21:00,66.0,59.3,30.23,NW,315,0.0,0.0,79,0.00,,,0.00,Weather View 32 v70,2013-04-18 06:21:00,
2013-04-18 02:26:00,66.0,59.3,30.22,NW,315,0.0,0.0,79,0.00,,,0.00,Weather View 32 v70,2013-04-18 06:26:00,
2013-04-18 02:36:00,66.0,59.3,30.23,NW,315,0.0,0.0,79,0.00,,,0.00,Weather View 32 v70,2013-04-18 06:36:00,
2013-04-18 02:46:00,65.0,58.3,30.23,NW,315,0.0,0.0,79,0.00,,,0.00,Weather View 32 v70,2013-04-18 06:46:00,
2013-04-18 02:51:00,65.0,58.3,30.23,NW,315,0.0,0.0,79,0.00,,,0.00,Weather View 32 v70,2013-04-18 06:51:00,
2013-04-18 02:56:00,65.0,58.3,30.23,NW,315,0.0,0.0,79,0.00,,,0.00,Weather View 32 v70,2013-04-18 06:56:00,
2013-04-18 03:06:00,65.0,58.3,30.23,NE,45,0.0,0.0,79,0.00,,,0.00,Weather View 32 v70,2013-04-18 07:06:00,
2013-04-18 03:16:00,65.0,58.3,30.22,NE,45,0.0,0.0,79,0.00,,,0.00,Weather View 32 v70,2013-04-18 07:16:00,
2013-04-18 03:31:00,64.0,57.3,30.23,NE,45,0.0,0.0,79,0.00,,,0.00,Weather View 32 v70,2013-04-18 07:31:00,
2013-04-18 03:36:00,64.0,57.3,30.23,NE,45,0.0,0.0,79,0.00,,,0.00,Weather View 32 v70,2013-04-18 07:36:00,
2013-04-18 03:41:00,64.0,57.3,30.23,NE,45,0.0,0.0,79,0.00,,,0.00,Weather View 32 v70,2013-04-18 07:41:00,
2013-04-18 03:46:00,64.0,57.3,30.24,NE,45,0.0,0.0,79,0.00,,,0.00,Weather View 32 v70,2013-04-18 07:46:00,
2013-04-18 03:56:00,64.0,57.3,30.24,NE,45,0.0,0.0,79,0.00,,,0.00,Weather View 32 v70,2013-04-18 07:56:00,
2013-04-18 04:01:00,64.0,57.3,30.24,NE,45,0.0,0.0,79,0.00,,,0.00,Weather View 32 v70,2013-04-18 08:01:00,
2013-04-18 04:11:00,63.0,56.4,30.24,NE,45,0.0,0.0,79,0.00,,,0.00,Weather View 32 v70,2013-04-18 08:11:00,
2013-04-18 04:16:00,63.0,56.4,30.24,NE,45,0.0,0.0,79,0.00,,,0.00,Weather View 32 v70,2013-04-18 08:16:00,
2013-04-18 04:31:00,63.0,56.4,30.23,NE,45,0.0,0.0,79,0.00,,,0.00,Weather View 32 v70,2013-04-18 08:31:00,
2013-04-18 04:37:00,63.0,56.4,30.24,NE,45,0.0,0.0,79,0.00,,,0.00,Weather View 32 v70,2013-04-18 08:37:00,
2013-04-18 04:46:00,62.0,55.4,30.25,NE,45,0.0,0.0,79,0.00,,,0.00,Weather View 32 v70,2013-04-18 08:46:00,
2013-04-18 04:51:00,62.0,55.4,30.25,NE,45,0.0,0.0,79,0.00,,,0.00,Weather View 32 v70,2013-04-18 08:51:00,
2013-04-18 05:11:00,62.0,55.4,30.25,NE,45,0.0,0.0,79,0.00,,,0.00,Weather View 32 v70,2013-04-18 09:11:00,
2013-04-18 05:16:00,62.0,55.0,30.25,NE,45,0.0,0.0,78,0.00,,,0.00,Weather View 32 v70,2013-04-18 09:16:00,
2013-04-18 05:21:00,62.0,55.0,30.25,NE,45,0.0,0.0,78,0.00,,,0.00,Weather View 32 v70,2013-04-18 09:21:00,
2013-04-18 05:31:00,61.0,54.1,30.25,NE,45,0.0,0.0,78,0.00,,,0.00,Weather View 32 v70,2013-04-18 09:31:00,
2013-04-18 05:38:00,61.0,54.1,30.26,NE,45,0.0,0.0,78,0.00,,,0.00,Weather View 32 v70,2013-04-18 09:38:00,
2013-04-18 05:46:00,61.0,54.1,30.26,NE,45,0.0,0.0,78,0.00,,,0.00,Weather View 32 v70,2013-04-18 09:46:00,
2013-04-18 05:51:00,61.0,54.1,30.26,NE,45,0.0,0.0,78,0.00,,,0.00,Weather View 32 v70,2013-04-18 09:51:00,
2013-04-18 05:56:00,61.0,54.1,30.26,NE,45,0.0,0.0,78,0.00,,,0.00,Weather View 32 v70,2013-04-18 09:56:00,
2013-04-18 06:11:00,61.0,54.1,30.26,NE,45,0.0,0.0,78,0.00,,,0.00,Weather View 32 v70,2013-04-18 10:11:00,
2013-04-18 06:21:00,61.0,53.7,30.26,NE,45,0.0,0.0,77,0.00,,,0.00,Weather View 32 v70,2013-04-18 10:21:00,
2013-04-18 06:26:00,61.0,53.7,30.27,NE,45,0.0,0.0,77,0.00,,,0.00,Weather View 32 v70,2013-04-18 10:26:00,
2013-04-18 06:31:00,61.0,53.7,30.27,NE,45,0.0,0.0,77,0.00,,,0.00,Weather View 32 v70,2013-04-18 10:31:00,
2013-04-18 06:39:00,61.0,53.7,30.27,NE,45,0.0,0.0,77,0.00,,,0.00,Weather View 32 v70,2013-04-18 10:39:00,
2013-04-18 06:46:00,61.0,53.7,30.28,NE,45,0.0,0.0,77,0.00,,,0.00,Weather View 32 v70,2013-04-18 10:46:00,
2013-04-18 07:01:00,61.0,53.7,30.28,NE,45,0.0,0.0,77,0.00,,,0.00,Weather View 32 v70,2013-04-18 11:01:00,
2013-04-18 07:11:00,61.0,53.7,30.28,NE,45,0.0,0.0,77,0.00,,,0.00,Weather View 32 v70,2013-04-18 11:11:00,
2013-04-18 07:16:00,61.0,53.7,30.28,NE,45,0.0,0.0,77,0.00,,,0.00,Weather View 32 v70,2013-04-18 11:16:00,
2013-04-18 07:21:00,61.0,53.7,30.28,NE,45,0.0,0.0,77,0.00,,,0.00,Weather View 32 v70,2013-04-18 11:21:00,
2013-04-18 07:26:00,61.0,53.7,30.28,NE,45,0.0,0.0,77,0.00,,,0.00,Weather View 32 v70,2013-04-18 11:26:00,
2013-04-18 07:36:00,61.0,53.7,30.29,NE,45,0.0,0.0,77,0.00,,,0.00,Weather View 32 v70,2013-04-18 11:36:00,
2013-04-18 07:41:00,61.0,53.7,30.29,NE,45,0.0,0.0,77,0.00,,,0.00,Weather View 32 v70,2013-04-18 11:41:00,
2013-04-18 07:51:00,62.0,54.7,30.29,NE,45,0.0,0.0,77,0.00,,,0.00,Weather View 32 v70,2013-04-18 11:51:00,
2013-04-18 08:06:00,62.0,54.7,30.28,NE,45,0.0,0.0,77,0.00,,,0.00,Weather View 32 v70,2013-04-18 12:06:00,
2013-04-18 08:11:00,63.0,55.7,30.28,NE,45,0.0,0.0,77,0.00,,,0.00,Weather View 32 v70,2013-04-18 12:11:00,
2013-04-18 08:21:00,63.0,55.7,30.28,NE,45,0.0,0.0,77,0.00,,,0.00,Weather View 32 v70,2013-04-18 12:21:00,
2013-04-18 08:26:00,63.0,55.7,30.28,NE,45,0.0,0.0,77,0.00,,,0.00,Weather View 32 v70,2013-04-18 12:26:00,
2013-04-18 08:36:00,64.0,56.6,30.28,NE,45,0.0,0.0,77,0.00,,,0.00,Weather View 32 v70,2013-04-18 12:36:00,
2013-04-18 08:41:00,64.0,57.0,30.28,NE,45,0.0,0.0,78,0.00,,,0.00,Weather View 32 v70,2013-04-18 12:41:00,
2013-04-18 08:46:00,65.0,58.0,30.28,NE,45,0.0,0.0,78,0.00,,,0.00,Weather View 32 v70,2013-04-18 12:46:00,
2013-04-18 08:56:00,65.0,58.0,30.28,NE,45,0.0,0.0,78,0.00,,,0.00,Weather View 32 v70,2013-04-18 12:56:00,
2013-04-18 09:01:00,66.0,59.3,30.28,NE,45,0.0,0.0,79,0.00,,,0.00,Weather View 32 v70,2013-04-18 13:01:00,
2013-04-18 09:16:00,67.0,60.2,30.28,East,90,0.0,0.0,79,0.00,,,0.00,Weather View 32 v70,2013-04-18 13:16:00,
2013-04-18 09:21:00,67.0,60.2,30.28,North,360,0.0,0.0,79,0.00,,,0.00,Weather View 32 v70,2013-04-18 13:21:00,
2013-04-18 09:31:00,68.0,61.2,30.27,NE,45,0.0,1.0,79,0.00,,,0.00,Weather View 32 v70,2013-04-18 13:31:00,
2013-04-18 09:36:00,69.0,62.2,30.26,West,270,0.0,1.0,79,0.00,,,0.00,Weather View 32 v70,2013-04-18 13:36:00,
2013-04-18 09:46:00,70.0,63.5,30.27,West,270,0.0,1.0,80,0.00,,,0.00,Weather View 32 v70,2013-04-18 13:46:00,
2013-04-18 10:01:00,72.0,65.5,30.26,NW,315,0.0,5.0,80,0.00,,,0.00,Weather View 32 v70,2013-04-18 14:01:00,
2013-04-18 10:16:00,73.0,66.4,30.26,West,270,0.0,5.0,80,0.00,,,0.00,Weather View 32 v70,2013-04-18 14:16:00,
2013-04-18 10:21:00,74.0,67.4,30.26,NE,45,0.0,5.0,80,0.00,,,0.00,Weather View 32 v70,2013-04-18 14:21:00,
2013-04-18 10:31:00,75.0,68.7,30.25,SW,225,0.0,5.0,81,0.00,,,0.00,Weather View 32 v70,2013-04-18 14:31:00,
2013-04-18 10:41:00,76.0,70.1,30.25,East,90,0.0,5.0,82,0.00,,,0.00,Weather View 32 v70,2013-04-18 14:41:00,
2013-04-18 10:51:00,77.0,71.1,30.25,East,90,0.0,6.0,82,0.00,,,0.00,Weather View 32 v70,2013-04-18 14:51:00,
2013-04-18 11:01:00,77.0,71.1,30.25,ESE,112,0.0,6.0,82,0.00,,,0.00,Weather View 32 v70,2013-04-18 15:01:00,
2013-04-18 11:06:00,77.0,71.1,30.24,East,90,0.0,6.0,82,0.00,,,0.00,Weather View 32 v70,2013-04-18 15:06:00,
2013-04-18 11:11:00,77.0,71.1,30.24,East,90,0.0,6.0,82,0.00,,,0.00,Weather View 32 v70,2013-04-18 15:11:00,
2013-04-18 11:16:00,77.0,71.1,30.24,ENE,67,0.0,6.0,82,0.00,,,0.00,Weather View 32 v70,2013-04-18 15:16:00,
2013-04-18 11:26:00,77.0,71.1,30.24,West,270,0.0,6.0,82,0.00,,,0.00,Weather View 32 v70,2013-04-18 15:26:00,
2013-04-18 11:31:00,78.0,72.0,30.24,East,90,0.0,6.0,82,0.00,,,0.00,Weather View 32 v70,2013-04-18 15:31:00,
2013-04-18 11:36:00,78.0,72.0,30.24,East,90,0.0,6.0,82,0.00,,,0.00,Weather View 32 v70,2013-04-18 15:36:00,
2013-04-18 11:42:00,78.0,72.0,30.24,NE,45,0.0,7.0,82,0.00,,,0.00,Weather View 32 v70,2013-04-18 15:42:00,
2013-04-18 11:51:00,78.0,72.0,30.23,SW,225,0.0,7.0,82,0.00,,,0.00,Weather View 32 v70,2013-04-18 15:51:00,
2013-04-18 11:56:00,78.0,72.0,30.22,SE,135,0.0,7.0,82,0.00,,,0.00,Weather View 32 v70,2013-04-18 15:56:00,
2013-04-18 12:01:00,78.0,72.0,30.22,NE,45,0.0,7.0,82,0.00,,,0.00,Weather View 32 v70,2013-04-18 16:01:00,
2013-04-18 12:11:00,79.0,73.0,30.22,East,90,0.0,7.0,82,0.00,,,0.00,Weather View 32 v70,2013-04-18 16:11:00,
2013-04-18 12:21:00,78.0,72.0,30.22,West,270,0.0,7.0,82,0.00,,,0.00,Weather View 32 v70,2013-04-18 16:21:00,
2013-04-18 12:31:00,78.0,72.0,30.23,East,90,0.0,7.0,82,0.00,,,0.00,Weather View 32 v70,2013-04-18 16:31:00,
2013-04-18 12:41:00,78.0,72.0,30.22,North,360,0.0,6.0,82,0.00,,,0.00,Weather View 32 v70,2013-04-18 16:41:00,
2013-04-18 12:46:00,78.0,72.0,30.22,WSW,247,0.0,6.0,82,0.00,,,0.00,Weather View 32 v70,2013-04-18 16:46:00,
2013-04-18 13:01:00,79.0,73.0,30.21,West,270,0.0,6.0,82,0.00,,,0.00,Weather View 32 v70,2013-04-18 17:01:00,
2013-04-18 13:06:00,80.0,74.0,30.20,SE,135,0.0,6.0,82,0.00,,,0.00,Weather View 32 v70,2013-04-18 17:06:00,
2013-04-18 13:21:00,81.0,75.0,30.20,West,270,0.0,8.0,82,0.00,,,0.00,Weather View 32 v70,2013-04-18 17:21:00,
2013-04-18 13:25:00,81.0,75.0,30.19,East,90,0.0,8.0,82,0.00,,,0.00,Weather View 32 v70,2013-04-18 17:25:00,
2013-04-18 13:26:00,81.0,75.0,30.19,East,90,0.0,8.0,82,0.00,,,0.00,Weather View 32 v70,2013-04-18 17:26:00,
2013-04-18 16:16:00,83.0,76.9,30.13,East,90,0.0,0.0,82,0.00,,,0.00,Weather View 32 v70,2013-04-18 20:16:00,
2013-04-18 16:21:00,82.0,75.9,30.13,West,270,0.0,5.0,82,0.00,,,0.00,Weather View 32 v70,2013-04-18 20:21:00,
2013-04-18 16:31:00,82.0,75.9,30.12,NW,315,0.0,5.0,82,0.00,,,0.00,Weather View 32 v70,2013-04-18 20:31:00,
2013-04-18 16:41:00,81.0,75.0,30.12,East,90,0.0,6.0,82,0.00,,,0.00,Weather View 32 v70,2013-04-18 20:41:00,
2013-04-18 16:51:00,81.0,75.0,30.12,East,90,0.0,6.0,82,0.00,,,0.00,Weather View 32 v70,2013-04-18 20:51:00,
2013-04-18 17:01:00,80.0,74.0,30.11,East,90,0.0,6.0,82,0.00,,,0.00,Weather View 32 v70,2013-04-18 21:01:00,
2013-04-18 17:06:00,80.0,74.0,30.11,East,90,0.0,6.0,82,0.00,,,0.00,Weather View 32 v70,2013-04-18 21:06:00,
2013-04-18 17:13:00,80.0,74.0,30.11,East,90,0.0,6.0,82,0.00,,,0.00,Weather View 32 v70,2013-04-18 21:13:00,
2013-04-18 17:21:00,80.0,74.0,30.11,East,90,0.0,8.0,82,0.00,,,0.00,Weather View 32 v70,2013-04-18 21:21:00,
2013-04-18 17:41:00,79.0,73.0,30.12,East,90,0.0,8.0,82,0.00,,,0.00,Weather View 32 v70,2013-04-18 21:41:00,
2013-04-18 17:46:00,79.0,73.0,30.11,SE,135,0.0,8.0,82,0.00,,,0.00,Weather View 32 v70,2013-04-18 21:46:00,
2013-04-18 17:56:00,78.0,72.0,30.11,NW,315,0.0,8.0,82,0.00,,,0.00,Weather View 32 v70,2013-04-18 21:56:00,
2013-04-18 18:01:00,78.0,72.0,30.11,NE,45,0.0,8.0,82,0.00,,,0.00,Weather View 32 v70,2013-04-18 22:01:00,
2013-04-18 18:06:00,78.0,72.0,30.11,East,90,0.0,8.0,82,0.00,,,0.00,Weather View 32 v70,2013-04-18 22:06:00,
2013-04-18 18:14:00,78.0,72.0,30.11,East,90,0.0,8.0,82,0.00,,,0.00,Weather View 32 v70,2013-04-18 22:14:00,
2013-04-18 18:21:00,78.0,72.0,30.10,NE,45,0.0,3.0,82,0.00,,,0.00,Weather View 32 v70,2013-04-18 22:21:00,
2013-04-18 18:26:00,78.0,72.0,30.11,East,90,0.0,3.0,82,0.00,,,0.00,Weather View 32 v70,2013-04-18 22:26:00,
2013-04-18 18:31:00,78.0,72.0,30.11,East,90,0.0,0.0,82,0.00,,,0.00,Weather View 32 v70,2013-04-18 22:31:00,
2013-04-18 18:36:00,78.0,72.0,30.10,NE,45,0.0,0.0,82,0.00,,,0.00,Weather View 32 v70,2013-04-18 22:36:00,
2013-04-18 18:41:00,77.0,71.1,30.10,NE,45,0.0,0.0,82,0.00,,,0.00,Weather View 32 v70,2013-04-18 22:41:00,
2013-04-18 18:46:00,77.0,71.1,30.10,East,90,0.0,6.0,82,0.00,,,0.00,Weather View 32 v70,2013-04-18 22:46:00,
2013-04-18 18:51:00,77.0,71.1,30.10,East,90,0.0,6.0,82,0.00,,,0.00,Weather View 32 v70,2013-04-18 22:51:00,
2013-04-18 18:56:00,77.0,71.1,30.10,East,90,0.0,6.0,82,0.00,,,0.00,Weather View 32 v70,2013-04-18 22:56:00,
2013-04-18 19:01:00,77.0,71.1,30.10,East,90,0.0,6.0,82,0.00,,,0.00,Weather View 32 v70,2013-04-18 23:01:00,
2013-04-18 19:06:00,76.0,70.1,30.10,East,90,0.0,6.0,82,0.00,,,0.00,Weather View 32 v70,2013-04-18 23:06:00,
2013-04-18 19:11:00,76.0,70.1,30.10,East,90,0.0,6.0,82,0.00,,,0.00,Weather View 32 v70,2013-04-18 23:11:00,
2013-04-18 19:21:00,76.0,70.1,30.10,East,90,0.0,6.0,82,0.00,,,0.00,Weather View 32 v70,2013-04-18 23:21:00,
2013-04-18 19:26:00,76.0,70.1,30.10,ENE,67,0.0,6.0,82,0.00,,,0.00,Weather View 32 v70,2013-04-18 23:26:00,
2013-04-18 19:31:00,76.0,70.1,30.10,SE,135,0.0,6.0,82,0.00,,,0.00,Weather View 32 v70,2013-04-18 23:31:00,
2013-04-18 19:36:00,76.0,70.1,30.10,NE,45,0.0,6.0,82,0.00,,,0.00,Weather View 32 v70,2013-04-18 23:36:00,
2013-04-18 19:41:00,75.0,68.7,30.10,East,90,0.0,6.0,81,0.00,,,0.00,Weather View 32 v70,2013-04-18 23:41:00,
2013-04-18 19:46:00,75.0,68.7,30.10,East,90,0.0,4.0,81,0.00,,,0.00,Weather View 32 v70,2013-04-18 23:46:00,
2013-04-18 19:51:00,75.0,68.7,30.10,East,90,0.0,4.0,81,0.00,,,0.00,Weather View 32 v70,2013-04-18 23:51:00,
2013-04-18 19:56:00,75.0,68.7,30.11,East,90,0.0,0.0,81,0.00,,,0.00,Weather View 32 v70,2013-04-18 23:56:00,
2013-04-18 20:01:00,74.0,67.8,30.11,NW,315,0.0,0.0,81,0.00,,,0.00,Weather View 32 v70,2013-04-19 00:01:00,
2013-04-18 20:11:00,74.0,67.8,30.11,SE,135,0.0,0.0,81,0.00,,,0.00,Weather View 32 v70,2013-04-19 00:11:00,
2013-04-18 20:16:00,74.0,67.8,30.12,SE,135,0.0,0.0,81,0.00,,,0.00,Weather View 32 v70,2013-04-19 00:16:00,
2013-04-18 20:21:00,73.0,66.8,30.12,ENE,67,0.0,0.0,81,0.00,,,0.00,Weather View 32 v70,2013-04-19 00:21:00,
2013-04-18 20:26:00,73.0,66.8,30.11,East,90,0.0,0.0,81,0.00,,,0.00,Weather View 32 v70,2013-04-19 00:26:00,
2013-04-18 20:31:00,73.0,66.8,30.11,East,90,0.0,0.0,81,0.00,,,0.00,Weather View 32 v70,2013-04-19 00:31:00,
2013-04-18 20:36:00,73.0,66.8,30.12,East,90,0.0,0.0,81,0.00,,,0.00,Weather View 32 v70,2013-04-19 00:36:00,
2013-04-18 20:46:00,72.0,65.8,30.12,NE,45,0.0,0.0,81,0.00,,,0.00,Weather View 32 v70,2013-04-19 00:46:00,
2013-04-18 20:51:00,72.0,65.8,30.12,East,90,0.0,0.0,81,0.00,,,0.00,Weather View 32 v70,2013-04-19 00:51:00,
2013-04-18 20:56:00,72.0,65.8,30.12,East,90,0.0,0.0,81,0.00,,,0.00,Weather View 32 v70,2013-04-19 00:56:00,
2013-04-18 21:01:00,72.0,65.8,30.12,East,90,0.0,0.0,81,0.00,,,0.00,Weather View 32 v70,2013-04-19 01:01:00,
2013-04-18 21:06:00,72.0,65.8,30.13,East,90,0.0,0.0,81,0.00,,,0.00,Weather View 32 v70,2013-04-19 01:06:00,
2013-04-18 21:11:00,71.0,64.9,30.13,East,90,0.0,0.0,81,0.00,,,0.00,Weather View 32 v70,2013-04-19 01:11:00,
2013-04-18 21:16:00,71.0,64.9,30.13,East,90,0.0,0.0,81,0.00,,,0.00,Weather View 32 v70,2013-04-19 01:16:00,
2013-04-18 21:21:00,71.0,64.9,30.13,East,90,0.0,0.0,81,0.00,,,0.00,Weather View 32 v70,2013-04-19 01:21:00,
2013-04-18 21:26:00,71.0,64.9,30.13,East,90,0.0,0.0,81,0.00,,,0.00,Weather View 32 v70,2013-04-19 01:26:00,
2013-04-18 21:31:00,71.0,64.9,30.13,NW,315,2.0,2.0,81,0.00,,,0.00,Weather View 32 v70,2013-04-19 01:31:00,
2013-04-18 21:36:00,71.0,64.9,30.14,SE,135,0.0,2.0,81,0.00,,,0.00,Weather View 32 v70,2013-04-19 01:36:00,
2013-04-18 21:41:00,70.0,63.9,30.14,East,90,0.0,2.0,81,0.00,,,0.00,Weather View 32 v70,2013-04-19 01:41:00,
2013-04-18 21:46:00,70.0,63.9,30.14,East,90,0.0,2.0,81,0.00,,,0.00,Weather View 32 v70,2013-04-19 01:46:00,
2013-04-18 21:51:00,70.0,63.9,30.14,East,90,0.0,2.0,81,0.00,,,0.00,Weather View 32 v70,2013-04-19 01:51:00,
2013-04-18 21:56:00,70.0,63.9,30.14,East,90,0.0,2.0,81,0.00,,,0.00,Weather View 32 v70,2013-04-19 01:56:00,
2013-04-18 22:01:00,70.0,63.9,30.14,East,90,0.0,2.0,81,0.00,,,0.00,Weather View 32 v70,2013-04-19 02:01:00,
2013-04-18 22:11:00,69.0,62.6,30.14,East,90,0.0,2.0,80,0.00,,,0.00,Weather View 32 v70,2013-04-19 02:11:00,
2013-04-18 22:16:00,69.0,62.6,30.14,East,90,0.0,2.0,80,0.00,,,0.00,Weather View 32 v70,2013-04-19 02:16:00,
2013-04-18 22:26:00,69.0,62.6,30.14,East,90,0.0,2.0,80,0.00,,,0.00,Weather View 32 v70,2013-04-19 02:26:00,
2013-04-18 22:31:00,69.0,62.6,30.14,East,90,0.0,2.0,80,0.00,,,0.00,Weather View 32 v70,2013-04-19 02:31:00,
2013-04-18 22:36:00,69.0,62.6,30.14,NE,45,0.0,0.0,80,0.00,,,0.00,Weather View 32 v70,2013-04-19 02:36:00,
2013-04-18 22:41:00,68.0,61.6,30.14,SE,135,0.0,3.0,80,0.00,,,0.00,Weather View 32 v70,2013-04-19 02:41:00,
2013-04-18 22:46:00,68.0,61.6,30.14,East,90,0.0,4.0,80,0.00,,,0.00,Weather View 32 v70,2013-04-19 02:46:00,
2013-04-18 22:51:00,68.0,61.6,30.14,NE,45,0.0,4.0,80,0.00,,,0.00,Weather View 32 v70,2013-04-19 02:51:00,
2013-04-18 22:56:00,68.0,61.6,30.14,East,90,0.0,4.0,80,0.00,,,0.00,Weather View 32 v70,2013-04-19 02:56:00,
2013-04-18 23:01:00,68.0,61.6,30.14,ENE,67,0.0,4.0,80,0.00,,,0.00,Weather View 32 v70,2013-04-19 03:01:00,
2013-04-18 23:06:00,68.0,61.6,30.14,East,90,0.0,4.0,80,0.00,,,0.00,Weather View 32 v70,2013-04-19 03:06:00,
2013-04-18 23:11:00,68.0,61.6,30.14,NE,45,0.0,4.0,80,0.00,,,0.00,Weather View 32 v70,2013-04-19 03:11:00,
2013-04-18 23:16:00,68.0,61.6,30.13,East,90,0.0,4.0,80,0.00,,,0.00,Weather View 32 v70,2013-04-19 03:16:00,
2013-04-18 23:26:00,67.0,60.2,30.14,East,90,0.0,4.0,79,0.00,,,0.00,Weather View 32 v70,2013-04-19 03:26:00,
2013-04-18 23:31:00,67.0,60.2,30.14,East,90,0.0,4.0,79,0.00,,,0.00,Weather View 32 v70,2013-04-19 03:31:00,
2013-04-18 23:36:00,67.0,60.2,30.14,East,90,0.0,4.0,79,0.00,,,0.00,Weather View 32 v70,2013-04-19 03:36:00,
2013-04-18 23:41:00,67.0,60.2,30.14,East,90,0.0,4.0,79,0.00,,,0.00,Weather View 32 v70,2013-04-19 03:41:00,
2013-04-18 23:46:00,67.0,60.2,30.14,East,90,0.0,0.0,79,0.00,,,0.00,Weather View 32 v70,2013-04-19 03:46:00,
2013-04-18 23:51:00,67.0,60.2,30.14,East,90,0.0,0.0,79,0.00,,,0.00,Weather View 32 v70,2013-04-19 03:51:00,
2013-04-18 23:56:00,67.0,60.2,30.13,East,90,0.0,0.0,79,0.00,,,0.00,Weather View 32 v70,2013-04-19 03:56:00,